GSAT0210 (GALILEO 13)

Last updated on Mon Sep 21 2026 00:02:49 GMT+0000 (Coordinated Universal Time)

1 41550U 16030B 26263.08010179 .00000016 00000+0 00000+0 0 9995 2 41550 55.0726 219.0844 0003766 254.8124 105.1188 1.70473609 64289
UTC large
Height (km)
Speed (km/s)
/
Latitude / Longitude
Inclination (degrees)
Orbital Period (minutes)
Azimuth
Elevation
Range (km)
Doppler Factor

Next 0 passes for location: London (51.5072 / 0.1276)

No passes found over London.
GSAT0210 (GALILEO 13)